Voltar ao catálogo

FREGAT DEB

LostUNKNOWN
NORAD 46250·DEBRIS·🇷🇺 Russia

Lançado Jul 18, 2011 de Baikonur Cosmodrome

Loading…

Próximas Passagens (próximas 24 horas)

TLE

ObsoletoSource: Space-Track

Época: Aug 20, 2021, 04:42 UTC

1 46250U 11037KL  21232.19587630 -.00074749  00000-0 -41660-1 0  9999
2 46250  51.3008 295.5655 2467281 271.3329  60.8852  9.94125614 35659

Acompanhe FREGAT DEB em tempo real com AllMySat

Download on the App Store